Weather reports worldwide

Advertisment
Eugene OR/Mahlon Sweet, United States of America (72693): temperature & dewpoint: 20.10.2020 14:00:00 - 26.10.2020 14:00:00 (PDT)Eugene OR/Mahlon Sweet, United States of America (72693): wind speed & gusts: 20.10.2020 14:00:00 - 26.10.2020 14:00:00 (PDT)Eugene OR/Mahlon Sweet, United States of America (72693): wind direction: 20.10.2020 14:00:00 - 26.10.2020 14:00:00 (PDT)Eugene OR/Mahlon Sweet, United States of America (72693): reduced air pressure: 20.10.2020 14:00:00 - 26.10.2020 14:00:00 (PDT)Eugene OR/Mahlon Sweet, United States of America (72693): visibility: 20.10.2020 14:00:00 - 26.10.2020 14:00:00 (PDT)Eugene OR/Mahlon Sweet, United States of America (72693): precipitation: 20.10.2020 14:00:00 - 26.10.2020 14:00:00 (PDT)
Date & Time tt [°C] td [°C] ff [km/h] ff [kn] fx [km/h] fx [kn] dd ppp [hPa] vv [km] rr [mm]
26.10.2020 14:00:00 9,4 -5,0 0 0 - - N 1031,1 16 -
26.10.2020 13:00:00 8,3 -5,0 13 7 - - N 1032,3 16 -
26.10.2020 12:00:00 6,7 -6,1 9 5 - - NNW 1032,5 16 -
26.10.2020 11:00:00 4,4 -6,1 9 5 - - N 1032,9 16 0,0
26.10.2020 10:00:00 2,2 -5,6 0 0 - - N 1032,8 16 -
26.10.2020 09:00:00 0,0 -5,0 0 0 - - N 1032,9 16 -
26.10.2020 08:00:00 -3,9 -7,8 0 0 - - N 1032,7 16 -
26.10.2020 07:00:00 -3,9 -7,8 0 0 - - N 1032,7 16 -
26.10.2020 06:00:00 -3,9 -7,8 0 0 - - N 1032,6 16 -
26.10.2020 05:00:00 -2,8 -7,8 5 3 - - WNW 1032,1 16 0,0
26.10.2020 04:00:00 -2,8 -7,8 5 3 - - NNW 1032,2 16 -
26.10.2020 03:00:00 -2,2 -7,2 0 0 - - N 1032,0 16 -
26.10.2020 02:00:00 -1,1 -7,8 9 5 - - NNE 1031,8 16 -
26.10.2020 01:00:00 -1,1 -7,2 9 5 - - NNE 1031,7 16 -
26.10.2020 00:00:00 0,0 -7,2 13 7 - - N 1031,9 16 -
25.10.2020 23:00:00 0,6 -6,7 13 7 - - N 1031,7 16 0,0
25.10.2020 22:00:00 1,1 -6,7 15 8 - - N 1030,5 16 -
25.10.2020 21:00:00 3,3 -6,7 28 15 - - N 1030,3 16 -
25.10.2020 20:00:00 4,4 -6,7 24 13 - - N 1029,8 16 -
25.10.2020 19:00:00 5,6 -6,7 26 14 - - N 1029,3 16 -
25.10.2020 18:00:00 7,2 -7,2 35 19 52 28 N 1028,6 16 -
25.10.2020 17:00:00 9,4 -7,2 41 22 54 29 N 1027,9 16 0,0
25.10.2020 16:00:00 11,1 -6,7 37 20 55 30 N 1027,5 16 -
25.10.2020 15:00:00 11,1 -7,8 37 20 52 28 N 1027,7 16 -
25.10.2020 14:00:00 11,1 -7,2 35 19 54 29 N 1027,8 16 -
25.10.2020 13:00:00 10,0 -6,1 35 19 52 28 N 1028,5 16 -
25.10.2020 12:00:00 8,9 -6,7 35 19 48 26 NNE 1028,4 16 -
25.10.2020 11:00:00 7,2 -6,1 35 19 - - NNE 1028,8 16 0,0
25.10.2020 10:00:00 5,6 -6,1 29 16 - - NNE 1028,8 16 -
25.10.2020 09:00:00 2,8 -6,1 21 11 - - NNE 1028,2 16 -
25.10.2020 08:00:00 -0,6 -6,1 13 7 - - N 1027,0 16 -
25.10.2020 07:00:00 0,0 -5,6 15 8 - - NNW 1026,5 16 -
25.10.2020 06:00:00 0,6 -4,4 16 9 - - NNW 1025,8 16 -
25.10.2020 05:00:00 1,7 -3,9 21 11 - - NNW 1024,9 16 0,0
25.10.2020 04:00:00 1,1 -3,3 16 9 - - NNW 1024,4 16 -
25.10.2020 03:00:00 2,8 -2,8 18 10 - - NNW 1024,1 16 -
25.10.2020 02:00:00 3,3 -1,7 21 11 - - N 1023,7 16 -
25.10.2020 01:00:00 3,9 -0,6 22 12 - - NNW 1023,1 16 -
25.10.2020 00:00:00 5,0 0,6 21 11 - - N 1022,8 16 -
24.10.2020 23:00:00 6,1 1,7 21 11 - - N 1022,3 16 0,0
24.10.2020 22:00:00 7,2 2,2 24 13 - - N 1021,7 16 -
24.10.2020 21:00:00 7,8 2,8 26 14 - - N 1021,4 16 -
24.10.2020 20:00:00 8,3 3,3 24 13 - - N 1020,9 16 -
24.10.2020 19:00:00 8,9 5,0 18 10 - - N 1020,5 16 -
24.10.2020 18:00:00 11,7 5,6 24 13 - - N 1020,1 16 -
24.10.2020 17:00:00 13,9 7,2 31 17 - - N 1019,7 16 0,0
24.10.2020 16:00:00 16,1 5,6 11 6 - - NNE 1019,1 16 -
24.10.2020 15:00:00 16,1 4,4 8 4 - - NNE 1019,1 16 -
24.10.2020 14:00:00 14,4 4,4 0 0 - - N 1019,3 16 -
24.10.2020 13:00:00 15,6 4,4 5 3 - - - 1019,5 16 -
24.10.2020 12:00:00 13,9 5,6 8 4 - - W 1020,0 16 -
24.10.2020 11:00:00 13,3 7,8 5 3 - - W 1019,8 16 -
24.10.2020 10:00:00 12,8 8,3 5 3 - - SSW 1019,7 16 -
24.10.2020 09:00:00 11,7 8,9 0 0 - - N 1019,4 16 0,0
24.10.2020 08:00:00 10,6 8,9 8 4 - - W 1019,0 16 0,0
24.10.2020 07:00:00 11,1 8,9 8 4 - - WSW 1018,4 16 -
24.10.2020 06:00:00 10,6 8,3 11 6 - - WSW 1017,8 16 -
24.10.2020 05:00:00 11,1 8,3 11 6 - - W 1017,3 16 -
24.10.2020 04:00:00 12,8 9,4 22 12 - - W 1016,5 16 -
24.10.2020 03:00:00 13,3 10,6 15 8 - - W 1016,3 16 0,3
24.10.2020 02:00:00 13,9 12,2 13 7 - - S 1015,7 16 -
24.10.2020 01:00:00 13,3 12,2 15 8 - - SSE 1015,4 16 -
24.10.2020 00:00:00 13,3 12,2 13 7 - - S 1015,7 10 -
23.10.2020 23:00:00 13,9 11,1 9 5 - - SSE 1015,6 16 0,0
23.10.2020 22:00:00 13,3 10,6 13 7 - - S 1015,8 16 -
23.10.2020 21:00:00 12,8 9,4 13 7 - - SSE 1016,0 16 -
23.10.2020 20:00:00 12,8 10,0 13 7 - - SSE 1016,3 15 -
23.10.2020 19:00:00 12,2 9,4 18 10 - - SSE 1016,5 16 -
23.10.2020 18:00:00 15,0 8,9 16 9 - - S 1016,8 16 -
23.10.2020 17:00:00 16,1 7,8 16 9 - - SSW 1016,9 16 0,0
23.10.2020 16:00:00 16,7 4,4 18 10 - - SSW 1017,1 16 -
23.10.2020 15:00:00 16,7 3,9 18 10 - - S 1017,7 16 -
23.10.2020 14:00:00 15,0 4,4 15 8 - - SSE 1018,4 16 -
23.10.2020 13:00:00 13,9 3,9 16 9 - - S 1019,5 16 -
23.10.2020 12:00:00 11,7 4,4 16 9 - - SSW 1020,6 16 -
23.10.2020 11:00:00 9,4 3,9 18 10 - - S 1021,5 16 0,0
23.10.2020 10:00:00 6,7 3,3 9 5 - - S 1022,0 16 -
23.10.2020 09:00:00 3,3 1,7 5 3 - - SSE 1022,4 16 -
23.10.2020 08:00:00 1,1 0,0 8 4 - - - 1022,1 16 -
23.10.2020 07:00:00 -0,6 -1,7 0 0 - - N 1022,4 16 -
23.10.2020 06:00:00 0,0 -1,1 0 0 - - N 1022,4 16 -
23.10.2020 05:00:00 0,6 -1,1 0 0 - - N 1022,8 16 0,0
23.10.2020 04:00:00 1,1 -0,6 8 4 - - SSW 1023,2 16 -
23.10.2020 03:00:00 3,3 0,6 5 3 - - NNW 1024,0 16 -
23.10.2020 02:00:00 3,9 0,6 5 3 - - NNW 1024,2 16 -
23.10.2020 01:00:00 5,0 1,7 15 8 - - NNE 1024,8 16 -
23.10.2020 00:00:00 4,4 1,7 11 6 - - N 1025,2 16 -
22.10.2020 23:00:00 5,6 1,7 15 8 - - NNE 1025,0 16 0,0
22.10.2020 22:00:00 6,7 1,7 9 5 - - N 1025,0 16 -
22.10.2020 21:00:00 5,0 1,7 13 7 - - N 1025,4 16 -
22.10.2020 20:00:00 6,1 2,8 15 8 - - N 1025,6 16 -
22.10.2020 19:00:00 7,8 2,8 18 10 - - NNE 1025,5 16 -
22.10.2020 18:00:00 10,6 2,8 16 9 - - N 1025,6 16 -
22.10.2020 17:00:00 12,8 2,8 24 13 - - N 1025,6 16 0,0
22.10.2020 16:00:00 13,9 2,8 24 13 - - N 1026,0 16 -
22.10.2020 15:00:00 13,9 3,9 21 11 - - N 1026,4 16 -
22.10.2020 14:00:00 12,8 4,4 22 12 - - N 1027,0 16 -
22.10.2020 13:00:00 11,1 4,4 22 12 - - N 1027,7 16 -
22.10.2020 12:00:00 10,0 3,9 16 9 - - N 1028,5 16 -
22.10.2020 11:00:00 7,2 3,9 0 0 - - N 1028,6 16 0,0
22.10.2020 10:00:00 4,4 2,2 0 0 - - N 1028,7 16 -
22.10.2020 09:00:00 3,9 2,2 5 3 - - WNW 1028,4 16 -
22.10.2020 08:00:00 0,0 -1,1 0 0 - - N 1028,0 0,8 -
22.10.2020 07:00:00 0,0 -1,1 0 0 - - N 1027,3 16 -
22.10.2020 06:00:00 1,1 -0,6 0 0 - - N 1027,0 16 -
22.10.2020 05:00:00 1,7 0,0 0 0 - - N 1026,8 16 0,0
22.10.2020 04:00:00 2,2 0,0 0 0 - - N 1026,4 16 -
22.10.2020 03:00:00 2,8 0,6 0 0 - - N 1026,0 16 -
22.10.2020 02:00:00 2,8 1,1 0 0 - - N 1025,8 4,8 -
22.10.2020 01:00:00 5,0 1,7 8 4 - - WSW 1025,6 16 -
22.10.2020 00:00:00 4,4 1,7 11 6 - - NNW 1025,3 16 -
21.10.2020 23:00:00 6,7 2,2 8 4 - - N 1025,2 16 0,0
21.10.2020 22:00:00 6,7 2,8 8 4 - - NE 1024,8 16 -
21.10.2020 21:00:00 6,7 2,2 11 6 - - NE 1024,3 16 -
21.10.2020 20:00:00 8,3 3,3 13 7 - - N 1023,8 16 -
21.10.2020 19:00:00 11,1 3,3 16 9 - - NNW 1023,3 16 -
21.10.2020 18:00:00 12,8 5,6 16 9 - - N 1022,9 16 -
21.10.2020 17:00:00 13,9 6,7 13 7 - - N 1022,5 16 0,0
21.10.2020 16:00:00 16,7 6,1 15 8 - - NNE 1022,1 16 -
21.10.2020 15:00:00 15,0 6,1 9 5 - - NW 1022,2 16 -
21.10.2020 14:00:00 16,1 6,1 15 8 - - NNE 1022,3 16 -
21.10.2020 13:00:00 15,0 6,7 11 6 - - N 1022,8 16 -
21.10.2020 12:00:00 15,0 6,7 11 6 - - N 1022,6 16 -
21.10.2020 11:00:00 13,9 8,3 0 0 - - N 1022,8 16 0,0
21.10.2020 10:00:00 11,7 8,9 5 3 - - N 1022,7 16 -
21.10.2020 09:00:00 11,1 9,4 9 5 - - NNE 1022,2 16 -
21.10.2020 08:00:00 10,6 8,9 9 5 - - N 1021,5 16 -
21.10.2020 07:00:00 9,4 7,8 9 5 - - NW 1021,1 16 -
21.10.2020 06:00:00 10,0 8,3 9 5 - - N 1020,4 16 -
21.10.2020 05:00:00 10,0 7,8 15 8 - - NW 1019,9 16 0,0
21.10.2020 04:00:00 12,2 10,0 15 8 - - N 1020,1 16 -
21.10.2020 03:00:00 12,8 10,0 9 5 - - NNW 1020,3 16 -
21.10.2020 02:00:00 13,3 10,0 5 3 - - NNE 1020,0 16 -
21.10.2020 01:00:00 13,9 10,0 11 6 - - NNW 1019,9 16 -
21.10.2020 00:00:00 13,9 10,6 0 0 - - N 1019,8 16 -
20.10.2020 23:00:00 13,3 10,0 0 0 - - N 1019,8 16 0,0
20.10.2020 22:00:00 13,3 9,4 9 5 - - NW 1019,8 16 -
20.10.2020 21:00:00 12,2 8,9 8 4 - - WNW 1019,6 16 -
20.10.2020 20:00:00 12,8 8,3 5 3 - - - 1019,1 16 -
20.10.2020 19:00:00 13,9 9,4 11 6 - - NNW 1019,2 16 -
20.10.2020 18:00:00 16,1 10,0 11 6 - - N 1019,1 16 -
20.10.2020 17:00:00 18,3 8,3 9 5 - - N 1019,5 16 0,0
20.10.2020 16:00:00 18,9 8,9 9 5 - - NE 1019,7 16 -
20.10.2020 15:00:00 18,3 8,9 9 5 - - N 1020,4 16 -
20.10.2020 14:00:00 17,8 9,4 11 6 - - NW 1021,1 16 -

tt = temperature
td = dewpoint
ff = wind speed
fx = gusts
dd = wind direction
ppp = reduced air pressure
vv = visibility
rr = precipitation

Next stations